Location: Béaulencourt
(50.0796°N, 2.8795°E)
Time: 13:47:12
(UTC+00:00)

Dummy Sat-02 - Pass Details

Date: 22 April 2026
Orbit: 472 x 483 km, 86.3° (Epoch: 12 May)

Event Time Altitude Azimuth Distance (km) Brightness Sun altitude
Exits shadow 19:59:08 - 169° (S) 1,941 7.2 -10.2°
Reaches altitude 10° 19:59:51 10° 167° (SSE) 1,650 6.8 -10.3°
Maximum altitude 20:03:21 54° 90° (E) 591 4.7 -10.7°
Drops below altitude 10° 20:06:52 10° 13° (NNE) 1,659 7.6 -11.2°
Sets 20:08:59 0° 8° (N) 2,541 8.6 -11.5°
